Weather History for KIJD - December, 2013

Change the Weather History Date:

Thursday, December 26, 2013

  Actual Average Record
Temperature  
Mean Temperature 26 °F -  
Max Temperature 33 °F 36 °F 64 °F (1964)
Min Temperature 19 °F 15 °F -18 °F (1980)
Degree Days  
Heating Degree Days 39    
Moisture  
Dew Point 20 °F    
Average Humidity 75    
Maximum Humidity 89    
Minimum Humidity 65    
Precipitation  
Precipitation 0.00 in - - ()
Sea Level Pressure  
Sea Level Pressure 30.25 in    
Wind  
Wind Speed 2 mph (WNW)    
Max Wind Speed 9 mph    
Max Gust Speed -    
Visibility 8 miles    
Events Snow    
Averages and records for this station are not official NWS values.
T = Trace of Precipitation, MM = Missing Value Source: NWS Daily Summary

Daily Weather History Graph

Daily Weather History Graph

Search for Another Location

Airport or City:

Trip Planner

Search our weather history database for the weather conditions in past years. The results will help you decide how hot, cold, wet, or windy it might be!

Date:

Astronomy

Dec. 26, 2013 Rise Set
Actual Time 7:14 AM EST 4:24 PM EST
Civil Twilight 6:43 AM EST 4:55 PM EST
Nautical Twilight 6:08 AM EST 5:30 PM EST
Astronomical Twilight 5:34 AM EST 6:04 PM EST
Moon 12:36 AM EST (12/26) 12:01 PM EST (12/26)
Length of Visible Light 10h 12m
Length of Day
9h 09m
Last Quarter, 38% of the Moon is Illuminated
Dec 26
Last Quarter
Jan 1
New
Jan 7
First Quarter
Jan 15
Full
Jan 24
Last Quarter

Hourly Weather History & Observations

Time (EST) Temp. Windchill Dew Point Humidity Pressure Visibility Wind Dir Wind Speed Gust Speed Precip Events Conditions
12:52 AM 19.9 °F - 10.0 °F 65% 30.46 in 10.0 mi Calm Calm - N/A   Unknown
1:52 AM 21.0 °F - 10.9 °F 65% 30.46 in 10.0 mi Calm Calm - N/A   Unknown
2:52 AM 21.9 °F - 12.0 °F 66% 30.45 in 10.0 mi Calm Calm - N/A   Unknown
3:52 AM 21.9 °F - 12.0 °F 66% 30.42 in 10.0 mi Calm Calm - N/A   Unknown
4:52 AM 23.0 °F - 14.0 °F 68% 30.40 in 10.0 mi Calm Calm - N/A   Unknown
5:52 AM 24.1 °F - 15.1 °F 69% 30.37 in 10.0 mi Calm Calm - N/A   Unknown
6:52 AM 24.1 °F 19.7 °F 16.0 °F 71% 30.35 in 10.0 mi North 3.5 mph - N/A   Unknown
7:52 AM 24.1 °F 19.7 °F 17.1 °F 75% 30.33 in 10.0 mi NNE 3.5 mph - N/A   Overcast
8:52 AM 26.1 °F 21.9 °F 18.0 °F 71% 30.33 in 10.0 mi North 3.5 mph - N/A   Overcast
9:52 AM 27.0 °F 21.6 °F 18.0 °F 69% 30.31 in 10.0 mi NW 4.6 mph - N/A   Overcast
10:52 AM 28.0 °F 24.2 °F 21.0 °F 75% 30.26 in 6.0 mi ENE 3.5 mph - 0.00 in   Haze
11:52 AM 30.0 °F - 21.9 °F 72% 30.19 in 10.0 mi Calm Calm - N/A   Overcast
12:52 PM 32.0 °F 28.7 °F 23.0 °F 69% 30.16 in 10.0 mi Variable 3.5 mph - N/A   Overcast
1:08 PM 30.9 °F 27.5 °F 25.0 °F 79% 30.14 in 2.5 mi West 3.5 mph - 0.00 in Snow Light Snow
1:30 PM 30.9 °F 26.2 °F 27.0 °F 85% 30.14 in 1.0 mi West 4.6 mph - 0.00 in Snow Light Snow
1:40 PM 30.9 °F 26.2 °F 27.0 °F 85% 30.13 in 3.0 mi West 4.6 mph - 0.00 in Snow Light Snow
1:50 PM 32.0 °F 26.4 °F 26.6 °F 80% 30.13 in 7.0 mi West 5.8 mph - 0.00 in   Overcast
1:52 PM 32.0 °F 26.4 °F 27.0 °F 82% 30.14 in 7.0 mi West 5.8 mph - 0.00 in   Overcast
2:11 PM 30.9 °F 26.2 °F 26.1 °F 82% 30.12 in 10.0 mi WSW 4.6 mph - N/A   Overcast
2:52 PM 32.0 °F 25.6 °F 25.0 °F 75% 30.13 in 10.0 mi West 6.9 mph - N/A   Mostly Cloudy
3:52 PM 33.1 °F 25.5 °F 24.1 °F 70% 30.14 in 10.0 mi WSW 9.2 mph - N/A   Unknown
4:52 PM 30.9 °F 25.2 °F 24.1 °F 76% 30.15 in 10.0 mi WSW 5.8 mph - N/A   Partly Cloudy
5:52 PM 30.9 °F 24.3 °F 23.0 °F 72% 30.19 in 10.0 mi West 6.9 mph - N/A   Clear
6:52 PM 30.0 °F 25.2 °F 21.9 °F 72% 30.22 in 10.0 mi West 4.6 mph - N/A   Clear
7:52 PM 28.0 °F 22.8 °F 21.9 °F 78% 30.22 in 10.0 mi NW 4.6 mph - N/A   Clear
8:52 PM 28.0 °F 22.8 °F 21.0 °F 75% 30.23 in 10.0 mi SSW 4.6 mph - N/A   Clear
9:52 PM 23.0 °F 18.4 °F 19.9 °F 88% 30.25 in 8.0 mi South 3.5 mph - N/A   Clear
10:52 PM 23.0 °F - 19.9 °F 88% 30.25 in 7.0 mi Calm Calm - N/A   Clear
11:52 PM 19.9 °F - 17.1 °F 89% 30.24 in 6.0 mi Calm Calm - N/A   Clear